Location: Burbank
(38.7788°N, 114.0429°W)
Time: 20:39:37
(UTC+00:00)

Vanguard 2 - Pass Details

Date: 14 May 2026
Orbit: 553 x 2894 km, 32.9° (Epoch: 6 June)

Event Time Altitude Azimuth Distance (km) Brightness Sun altitude
Rises 05:48:21 0° 177° (S) 5,931 - -27.6°
Reaches altitude 10° 05:55:51 10° 153° (SSE) 5,361 - -28.3°
Maximum altitude 06:01:46 13° 131° (SE) 5,336 - -28.8°
Drops below altitude 10° 06:07:58 10° 110° (ESE) 5,699 - -29.3°
Exits shadow 06:09:06 - 106° (ESE) 5,802 11.6 -29.3°
Sets 06:16:26 0° 87° (E) 6,671 12.1 -29.9°
